Regional Weather Roundup
Issued by NWS

Home | Current Version | Previous Version | Text Only | Print | Product List | Glossary Off
Versions: 1 2 3 4 5 6 7 8 9 10 11 12 13 14 15 16 17 18 19 20 21 22 23 24 25 26 27 28 29 30 31 32 33 34 35 36 37 38 39 40 41 42 43 44 45 46 47 48 49 50

774
ASUS43 KBIS 202102
RWRND

NORTH DAKOTA REGIONAL WEATHER ROUNDUP
NATIONAL WEATHER SERVICE BISMARCK ND
400 PM CDT THU JUL 20 2017

NOTE: "FAIR" INDICATES FEW OR NO CLOUDS BELOW 12,000 FEET WITH NO
SIGNIFICANT WEATHER AND/OR OBSTRUCTIONS TO VISIBILITY.


NDZ001>003-009>011-017-202200-
NORTHWEST NORTH DAKOTA

CITY           SKY/WX    TMP DP  RH WIND       PRES   REMARKS
WILLISTON      CLOUDY    92  51  24 NE16      29.86F
MINOT          CLOUDY    90  59  35 W10       29.94R
MINOT AFB      CLOUDY    84  64  51 NW14      29.94R
$$

NDZ018>021-031>035-040>046-202200-
SOUTHWEST NORTH DAKOTA

CITY           SKY/WX    TMP DP  RH WIND       PRES   REMARKS
BISMARCK       SUNNY     96  58  27 S16G25    29.92F HX  95
DICKINSON      SUNNY     96  59  29 S21G32    29.86F HX  95
GARRISON         N/A     90  56  31 SW8       29.90S
HETTINGER ARPT SUNNY     97  57  26 SE22G32   29.92F HX  96
$$

NDZ004>008-012>016-024-026-027-054-202200-
NORTHEAST NORTH DAKOTA

CITY           SKY/WX    TMP DP  RH WIND       PRES   REMARKS
GRAND FORKS    SUNNY     84  62  47 SE5       29.96F
GRND FRKS AFB  SUNNY     82  61  49 SW3       29.97F
DEVILS LAKE    SUNNY     86  61  42 SE12      29.96F
$$

NDZ022-023-025-028>030-036>039-047>053-202200-
SOUTHEAST NORTH DAKOTA

CITY           SKY/WX    TMP DP  RH WIND       PRES   REMARKS
FARGO          SUNNY     88  60  38 S8        29.97F
JAMESTOWN      SUNNY     88  65  46 S15       29.95F HX  90
$$





USA.gov is the U.S. government's official web portal to all federal, state and local government web resources and services.